Time,TemperatureF,DewpointF,PressureIn,WindDirection,WindDirectionDegrees,WindSpeedMPH,WindSpeedGustMPH,Humidity,HourlyPrecipIn,Conditions,Clouds,dailyrainin,SoftwareType,DateUTC
2013-07-21 00:00:00,69.0,63.0,29.81,North,0,6.0,9.0,82,0.00,,,0.00,Rainwise IP-100,2013-07-21 04:00:00,
2013-07-21 00:01:00,69.0,63.0,29.81,NNW,337,6.0,9.0,82,0.00,,,0.00,Rainwise IP-100,2013-07-21 04:01:00,
2013-07-21 00:06:00,69.2,63.0,29.81,NNW,337,5.0,5.0,80,0.00,,,0.00,Rainwise IP-100,2013-07-21 04:06:00,
2013-07-21 00:11:00,69.4,61.0,29.81,NNW,337,5.0,5.0,77,0.00,,,0.00,Rainwise IP-100,2013-07-21 04:11:00,
2013-07-21 00:16:00,69.3,61.0,29.83,NNW,337,8.0,8.0,75,0.00,,,0.00,Rainwise IP-100,2013-07-21 04:16:00,
2013-07-21 00:21:00,69.3,60.0,29.80,North,0,4.0,0.0,73,0.00,,,0.00,Rainwise IP-100,2013-07-21 04:21:00,
2013-07-21 00:26:00,69.4,59.0,29.82,NNW,337,3.0,0.0,71,0.00,,,0.00,Rainwise IP-100,2013-07-21 04:26:00,
2013-07-21 00:31:00,69.2,59.0,29.82,WNW,292,4.0,8.0,71,0.00,,,0.00,Rainwise IP-100,2013-07-21 04:31:00,
2013-07-21 00:36:00,68.8,59.0,29.81,NW,315,4.0,8.0,73,0.00,,,0.00,Rainwise IP-100,2013-07-21 04:36:00,
2013-07-21 00:41:00,68.4,60.0,29.81,NNW,337,2.0,8.0,74,0.00,,,0.00,Rainwise IP-100,2013-07-21 04:41:00,
2013-07-21 00:46:00,68.0,60.0,29.82,WNW,292,2.0,6.0,76,0.00,,,0.00,Rainwise IP-100,2013-07-21 04:46:00,
2013-07-21 00:51:00,67.6,60.0,29.83,North,0,4.0,6.0,77,0.00,,,0.00,Rainwise IP-100,2013-07-21 04:51:00,
2013-07-21 00:56:00,67.4,60.0,29.81,NNW,337,6.0,6.0,77,0.00,,,0.00,Rainwise IP-100,2013-07-21 04:56:00,
2013-07-21 01:01:00,67.2,60.0,29.82,NNW,337,5.0,7.0,78,0.00,,,0.00,Rainwise IP-100,2013-07-21 05:01:00,
2013-07-21 01:06:00,67.2,60.0,29.80,NW,315,0.0,9.0,77,0.00,,,0.00,Rainwise IP-100,2013-07-21 05:06:00,
2013-07-21 01:11:00,67.2,60.0,29.84,NNW,337,5.0,9.0,77,0.00,,,0.00,Rainwise IP-100,2013-07-21 05:11:00,
2013-07-21 01:16:00,67.4,59.0,29.82,NW,315,3.0,8.0,75,0.00,,,0.00,Rainwise IP-100,2013-07-21 05:16:00,
2013-07-21 01:21:00,67.5,59.0,29.82,WNW,292,4.0,8.0,74,0.00,,,0.00,Rainwise IP-100,2013-07-21 05:21:00,
2013-07-21 01:26:00,67.4,59.0,29.82,NNE,22,4.0,4.0,74,0.00,,,0.00,Rainwise IP-100,2013-07-21 05:26:00,
2013-07-21 01:31:00,67.2,59.0,29.81,WNW,292,4.0,7.0,74,0.00,,,0.00,Rainwise IP-100,2013-07-21 05:31:00,
2013-07-21 01:36:00,67.1,59.0,29.83,WNW,292,0.0,7.0,74,0.00,,,0.00,Rainwise IP-100,2013-07-21 05:36:00,
2013-07-21 01:41:00,66.9,59.0,29.82,NNW,337,2.0,7.0,75,0.00,,,0.00,Rainwise IP-100,2013-07-21 05:41:00,
2013-07-21 01:46:00,66.7,59.0,29.81,WNW,292,0.0,5.0,75,0.00,,,0.00,Rainwise IP-100,2013-07-21 05:46:00,
2013-07-21 01:51:00,66.5,59.0,29.83,North,0,3.0,7.0,76,0.00,,,0.00,Rainwise IP-100,2013-07-21 05:51:00,
2013-07-21 01:56:00,66.3,58.0,29.84,WNW,292,0.0,5.0,76,0.00,,,0.00,Rainwise IP-100,2013-07-21 05:56:00,
2013-07-21 02:01:00,66.0,58.0,29.84,NNW,337,1.0,9.0,76,0.00,,,0.00,Rainwise IP-100,2013-07-21 06:01:00,
2013-07-21 02:06:00,65.8,58.0,29.85,NW,315,2.0,8.0,77,0.00,,,0.00,Rainwise IP-100,2013-07-21 06:06:00,
2013-07-21 02:11:00,65.5,58.0,29.84,WNW,292,4.0,7.0,77,0.00,,,0.00,Rainwise IP-100,2013-07-21 06:11:00,
2013-07-21 02:16:00,65.4,58.0,29.83,WNW,292,4.0,5.0,77,0.00,,,0.00,Rainwise IP-100,2013-07-21 06:16:00,
2013-07-21 02:21:00,65.3,57.0,29.82,NW,315,4.0,6.0,77,0.00,,,0.00,Rainwise IP-100,2013-07-21 06:21:00,
2013-07-21 02:26:00,65.1,57.0,29.85,WNW,292,2.0,5.0,77,0.00,,,0.00,Rainwise IP-100,2013-07-21 06:26:00,
2013-07-21 02:31:00,64.9,57.0,29.83,NNW,337,2.0,6.0,77,0.00,,,0.00,Rainwise IP-100,2013-07-21 06:31:00,
2013-07-21 02:36:00,64.8,57.0,29.84,WNW,292,1.0,6.0,77,0.00,,,0.00,Rainwise IP-100,2013-07-21 06:36:00,
2013-07-21 02:41:00,64.6,57.0,29.85,NNW,337,4.0,5.0,77,0.00,,,0.00,Rainwise IP-100,2013-07-21 06:41:00,
2013-07-21 02:46:00,64.5,57.0,29.87,WNW,292,4.0,5.0,77,0.00,,,0.00,Rainwise IP-100,2013-07-21 06:46:00,
2013-07-21 02:51:00,64.4,56.0,29.87,NNE,22,2.0,6.0,76,0.00,,,0.00,Rainwise IP-100,2013-07-21 06:51:00,
2013-07-21 02:56:00,64.4,56.0,29.88,WNW,292,3.0,9.0,75,0.00,,,0.00,Rainwise IP-100,2013-07-21 06:56:00,
2013-07-21 03:01:00,64.4,56.0,29.87,NW,315,2.0,5.0,75,0.00,,,0.00,Rainwise IP-100,2013-07-21 07:01:00,
2013-07-21 03:06:00,64.4,56.0,29.83,North,0,3.0,8.0,75,0.00,,,0.00,Rainwise IP-100,2013-07-21 07:06:00,
2013-07-21 03:11:00,64.4,56.0,29.84,NNW,337,4.0,5.0,75,0.00,,,0.00,Rainwise IP-100,2013-07-21 07:11:00,
2013-07-21 03:16:00,64.4,56.0,29.82,NNE,22,4.0,5.0,74,0.00,,,0.00,Rainwise IP-100,2013-07-21 07:16:00,
2013-07-21 03:21:00,64.5,56.0,29.88,NW,315,4.0,6.0,74,0.00,,,0.00,Rainwise IP-100,2013-07-21 07:21:00,
2013-07-21 03:26:00,64.6,56.0,29.86,North,0,3.0,7.0,74,0.00,,,0.00,Rainwise IP-100,2013-07-21 07:26:00,
2013-07-21 03:31:00,64.6,56.0,29.89,North,0,3.0,9.0,73,0.00,,,0.00,Rainwise IP-100,2013-07-21 07:31:00,
2013-07-21 03:36:00,64.5,56.0,29.85,NNW,337,3.0,9.0,73,0.00,,,0.00,Rainwise IP-100,2013-07-21 07:36:00,
2013-07-21 03:41:00,64.4,56.0,29.86,NW,315,2.0,6.0,73,0.00,,,0.00,Rainwise IP-100,2013-07-21 07:41:00,
2013-07-21 03:46:00,64.3,55.0,29.87,NNW,337,3.0,7.0,74,0.00,,,0.00,Rainwise IP-100,2013-07-21 07:46:00,
2013-07-21 03:51:00,64.1,56.0,29.89,NNW,337,3.0,6.0,75,0.00,,,0.00,Rainwise IP-100,2013-07-21 07:51:00,
2013-07-21 03:56:00,63.7,56.0,29.87,North,0,1.0,5.0,76,0.00,,,0.00,Rainwise IP-100,2013-07-21 07:56:00,
2013-07-21 04:01:00,63.4,56.0,29.89,NNW,337,2.0,2.0,77,0.00,,,0.00,Rainwise IP-100,2013-07-21 08:01:00,
2013-07-21 04:06:00,63.1,56.0,29.87,NNW,337,1.0,2.0,78,0.00,,,0.00,Rainwise IP-100,2013-07-21 08:06:00,
2013-07-21 04:11:00,62.8,56.0,29.89,NNW,337,0.0,1.0,79,0.00,,,0.00,Rainwise IP-100,2013-07-21 08:11:00,
2013-07-21 04:16:00,62.5,56.0,29.89,NNW,337,0.0,2.0,79,0.00,,,0.00,Rainwise IP-100,2013-07-21 08:16:00,
2013-07-21 04:21:00,62.2,56.0,29.90,WNW,292,1.0,2.0,80,0.00,,,0.00,Rainwise IP-100,2013-07-21 08:21:00,
2013-07-21 04:26:00,62.1,56.0,29.90,WNW,292,2.0,2.0,81,0.00,,,0.00,Rainwise IP-100,2013-07-21 08:26:00,
2013-07-21 04:31:00,62.1,56.0,29.91,NW,315,4.0,4.0,81,0.00,,,0.00,Rainwise IP-100,2013-07-21 08:31:00,
2013-07-21 04:36:00,62.2,56.0,29.91,NNE,22,0.0,4.0,81,0.00,,,0.00,Rainwise IP-100,2013-07-21 08:36:00,
2013-07-21 04:41:00,62.3,56.0,29.91,North,0,2.0,5.0,81,0.00,,,0.00,Rainwise IP-100,2013-07-21 08:41:00,
2013-07-21 04:46:00,62.4,56.0,29.90,NNW,337,2.0,5.0,80,0.00,,,0.00,Rainwise IP-100,2013-07-21 08:46:00,
2013-07-21 04:51:00,62.7,56.0,29.93,NNE,22,4.0,4.0,80,0.00,,,0.00,Rainwise IP-100,2013-07-21 08:51:00,
2013-07-21 04:56:00,62.8,56.0,29.91,NW,315,1.0,4.0,79,0.00,,,0.00,Rainwise IP-100,2013-07-21 08:56:00,
2013-07-21 05:01:00,62.8,56.0,29.90,NW,315,3.0,4.0,79,0.00,,,0.00,Rainwise IP-100,2013-07-21 09:01:00,
2013-07-21 05:06:00,62.8,56.0,29.90,NNW,337,2.0,4.0,79,0.00,,,0.00,Rainwise IP-100,2013-07-21 09:06:00,
2013-07-21 05:11:00,62.8,56.0,29.91,NNW,337,1.0,4.0,79,0.00,,,0.00,Rainwise IP-100,2013-07-21 09:11:00,
2013-07-21 05:16:00,62.6,56.0,29.88,NNW,337,1.0,2.0,79,0.00,,,0.00,Rainwise IP-100,2013-07-21 09:16:00,
2013-07-21 05:21:00,62.5,56.0,29.93,NNW,337,2.0,3.0,79,0.00,,,0.00,Rainwise IP-100,2013-07-21 09:21:00,
2013-07-21 05:26:00,62.4,56.0,29.89,NW,315,2.0,3.0,80,0.00,,,0.00,Rainwise IP-100,2013-07-21 09:26:00,
2013-07-21 05:31:00,62.4,56.0,29.93,NNW,337,2.0,3.0,80,0.00,,,0.00,Rainwise IP-100,2013-07-21 09:31:00,
2013-07-21 05:36:00,62.5,56.0,29.93,WNW,292,2.0,3.0,80,0.00,,,0.00,Rainwise IP-100,2013-07-21 09:36:00,
2013-07-21 05:41:00,62.5,56.0,29.92,WNW,292,0.0,3.0,80,0.00,,,0.00,Rainwise IP-100,2013-07-21 09:41:00,
2013-07-21 05:46:00,62.4,56.0,29.93,NW,315,2.0,3.0,80,0.00,,,0.00,Rainwise IP-100,2013-07-21 09:46:00,
2013-07-21 05:51:00,62.4,56.0,29.94,WNW,292,0.0,2.0,80,0.00,,,0.00,Rainwise IP-100,2013-07-21 09:51:00,
2013-07-21 05:53:00,62.5,56.0,29.92,NNW,337,1.0,2.0,80,0.00,,,0.00,Rainwise IP-100,2013-07-21 09:53:00,
2013-07-21 05:58:00,62.5,56.0,29.93,WNW,292,0.0,2.0,80,0.00,,,0.00,Rainwise IP-100,2013-07-21 09:58:00,
2013-07-21 06:03:00,62.6,56.0,29.94,WNW,292,2.0,3.0,80,0.00,,,0.00,Rainwise IP-100,2013-07-21 10:03:00,
2013-07-21 06:08:00,62.6,56.0,29.95,WNW,292,1.0,2.0,80,0.00,,,0.00,Rainwise IP-100,2013-07-21 10:08:00,
2013-07-21 06:13:00,62.6,56.0,29.95,NW,315,1.0,3.0,80,0.00,,,0.00,Rainwise IP-100,2013-07-21 10:13:00,
2013-07-21 06:18:00,62.6,56.0,29.96,WNW,292,1.0,3.0,80,0.00,,,0.00,Rainwise IP-100,2013-07-21 10:18:00,
2013-07-21 06:23:00,62.7,56.0,29.95,WNW,292,0.0,2.0,80,0.00,,,0.00,Rainwise IP-100,2013-07-21 10:23:00,
2013-07-21 06:28:00,62.7,56.0,29.95,NNW,337,1.0,2.0,79,0.00,,,0.00,Rainwise IP-100,2013-07-21 10:28:00,
2013-07-21 06:33:00,62.9,56.0,29.93,NNW,337,2.0,3.0,79,0.00,,,0.00,Rainwise IP-100,2013-07-21 10:33:00,
2013-07-21 06:38:00,63.4,56.0,29.97,NW,315,3.0,4.0,78,0.00,,,0.00,Rainwise IP-100,2013-07-21 10:38:00,
2013-07-21 06:43:00,64.1,56.0,29.98,NNW,337,4.0,4.0,77,0.00,,,0.00,Rainwise IP-100,2013-07-21 10:43:00,
2013-07-21 06:48:00,64.6,56.0,29.97,NNW,337,2.0,3.0,75,0.00,,,0.00,Rainwise IP-100,2013-07-21 10:48:00,
2013-07-21 06:53:00,64.8,56.0,29.96,NNW,337,4.0,4.0,74,0.00,,,0.00,Rainwise IP-100,2013-07-21 10:53:00,
2013-07-21 06:58:00,64.8,56.0,29.96,NNW,337,2.0,4.0,73,0.00,,,0.00,Rainwise IP-100,2013-07-21 10:58:00,
2013-07-21 07:03:00,64.6,56.0,29.94,NNW,337,2.0,3.0,73,0.00,,,0.00,Rainwise IP-100,2013-07-21 11:03:00,
2013-07-21 07:08:00,64.4,56.0,29.98,NNW,337,2.0,4.0,73,0.00,,,0.00,Rainwise IP-100,2013-07-21 11:08:00,
2013-07-21 07:13:00,64.3,55.0,29.95,NNW,337,4.0,4.0,74,0.00,,,0.00,Rainwise IP-100,2013-07-21 11:13:00,
2013-07-21 07:18:00,64.1,56.0,29.96,NNW,337,2.0,5.0,75,0.00,,,0.00,Rainwise IP-100,2013-07-21 11:18:00,
2013-07-21 07:23:00,64.6,56.0,29.98,North,0,2.0,4.0,75,0.00,,,0.00,Rainwise IP-100,2013-07-21 11:23:00,
2013-07-21 07:28:00,65.7,57.0,29.99,NNW,337,1.0,3.0,74,0.00,,,0.00,Rainwise IP-100,2013-07-21 11:28:00,
2013-07-21 07:33:00,66.3,57.0,29.98,NNW,337,2.0,3.0,72,0.00,,,0.00,Rainwise IP-100,2013-07-21 11:33:00,
2013-07-21 07:38:00,66.4,56.0,29.98,NW,315,4.0,5.0,70,0.00,,,0.00,Rainwise IP-100,2013-07-21 11:38:00,
2013-07-21 07:43:00,66.1,56.0,29.97,NW,315,2.0,5.0,70,0.00,,,0.00,Rainwise IP-100,2013-07-21 11:43:00,
2013-07-21 07:48:00,65.8,55.0,29.96,North,0,3.0,4.0,70,0.00,,,0.00,Rainwise IP-100,2013-07-21 11:48:00,
2013-07-21 07:53:00,65.9,55.0,29.96,NW,315,2.0,5.0,69,0.00,,,0.00,Rainwise IP-100,2013-07-21 11:53:00,
2013-07-21 07:58:00,66.0,55.0,29.95,NNW,337,3.0,4.0,69,0.00,,,0.00,Rainwise IP-100,2013-07-21 11:58:00,
2013-07-21 08:03:00,66.3,55.0,29.96,NW,315,3.0,5.0,68,0.00,,,0.00,Rainwise IP-100,2013-07-21 12:03:00,
2013-07-21 08:08:00,66.5,55.0,29.97,NNW,337,4.0,5.0,67,0.00,,,0.00,Rainwise IP-100,2013-07-21 12:08:00,
2013-07-21 08:13:00,66.5,55.0,29.98,NNE,22,2.0,5.0,67,0.00,,,0.00,Rainwise IP-100,2013-07-21 12:13:00,
2013-07-21 08:18:00,66.5,55.0,29.94,NNW,337,0.0,4.0,66,0.00,,,0.00,Rainwise IP-100,2013-07-21 12:18:00,
2013-07-21 08:23:00,66.7,55.0,29.98,NNW,337,4.0,4.0,66,0.00,,,0.00,Rainwise IP-100,2013-07-21 12:23:00,
2013-07-21 08:28:00,67.2,55.0,29.97,NW,315,2.0,5.0,65,0.00,,,0.00,Rainwise IP-100,2013-07-21 12:28:00,
2013-07-21 08:33:00,67.3,55.0,29.95,NNW,337,0.0,5.0,65,0.00,,,0.00,Rainwise IP-100,2013-07-21 12:33:00,
2013-07-21 08:38:00,67.0,55.0,29.98,NW,315,5.0,5.0,65,0.00,,,0.00,Rainwise IP-100,2013-07-21 12:38:00,
2013-07-21 08:43:00,67.0,55.0,29.97,NNW,337,3.0,5.0,65,0.00,,,0.00,Rainwise IP-100,2013-07-21 12:43:00,
2013-07-21 08:48:00,67.1,55.0,30.01,NNW,337,4.0,5.0,65,0.00,,,0.00,Rainwise IP-100,2013-07-21 12:48:00,
2013-07-21 08:53:00,67.1,55.0,29.96,NW,315,2.0,6.0,65,0.00,,,0.00,Rainwise IP-100,2013-07-21 12:53:00,
2013-07-21 08:58:00,66.9,55.0,29.97,NW,315,5.0,5.0,65,0.00,,,0.00,Rainwise IP-100,2013-07-21 12:58:00,
2013-07-21 09:03:00,66.6,55.0,29.99,NNW,337,4.0,5.0,66,0.00,,,0.00,Rainwise IP-100,2013-07-21 13:03:00,
2013-07-21 09:08:00,67.4,56.0,29.99,NNE,22,2.0,4.0,66,0.00,,,0.00,Rainwise IP-100,2013-07-21 13:08:00,
2013-07-21 09:13:00,68.6,55.0,29.99,North,0,2.0,4.0,63,0.00,,,0.00,Rainwise IP-100,2013-07-21 13:13:00,
2013-07-21 09:18:00,69.0,55.0,29.99,NNE,22,2.0,4.0,62,0.00,,,0.00,Rainwise IP-100,2013-07-21 13:18:00,
2013-07-21 09:23:00,69.1,54.0,29.95,North,0,0.0,4.0,61,0.00,,,0.00,Rainwise IP-100,2013-07-21 13:23:00,
2013-07-21 09:28:00,69.2,55.0,30.01,NW,315,2.0,3.0,61,0.00,,,0.00,Rainwise IP-100,2013-07-21 13:28:00,
2013-07-21 09:33:00,69.1,54.0,29.97,NNW,337,4.0,4.0,61,0.00,,,0.00,Rainwise IP-100,2013-07-21 13:33:00,
2013-07-21 09:38:00,68.8,54.0,29.99,NNW,337,3.0,4.0,61,0.00,,,0.00,Rainwise IP-100,2013-07-21 13:38:00,
2013-07-21 09:43:00,68.9,54.0,30.01,North,0,4.0,4.0,61,0.00,,,0.00,Rainwise IP-100,2013-07-21 13:43:00,
2013-07-21 09:48:00,69.1,54.0,29.99,NW,315,3.0,5.0,60,0.00,,,0.00,Rainwise IP-100,2013-07-21 13:48:00,
2013-07-21 09:53:00,68.6,54.0,30.00,NE,45,6.0,6.0,60,0.00,,,0.00,Rainwise IP-100,2013-07-21 13:53:00,
2013-07-21 09:58:00,68.5,54.0,30.01,ENE,67,5.0,5.0,60,0.00,,,0.00,Rainwise IP-100,2013-07-21 13:58:00,
2013-07-21 10:03:00,69.2,54.0,29.99,NNE,22,2.0,6.0,60,0.00,,,0.00,Rainwise IP-100,2013-07-21 14:03:00,
2013-07-21 10:08:00,70.0,55.0,30.01,WNW,292,4.0,4.0,60,0.00,,,0.00,Rainwise IP-100,2013-07-21 14:08:00,
2013-07-21 10:13:00,70.5,55.0,29.99,NNW,337,2.0,5.0,59,0.00,,,0.00,Rainwise IP-100,2013-07-21 14:13:00,
2013-07-21 10:18:00,70.4,55.0,29.99,NNW,337,2.0,5.0,58,0.00,,,0.00,Rainwise IP-100,2013-07-21 14:18:00,
2013-07-21 10:23:00,70.3,53.0,30.02,North,0,3.0,6.0,56,0.00,,,0.00,Rainwise IP-100,2013-07-21 14:23:00,
2013-07-21 10:28:00,70.6,53.0,30.02,NNE,22,4.0,5.0,55,0.00,,,0.00,Rainwise IP-100,2013-07-21 14:28:00,
2013-07-21 10:33:00,71.5,54.0,30.00,NNW,337,3.0,6.0,54,0.00,,,0.00,Rainwise IP-100,2013-07-21 14:33:00,
2013-07-21 10:38:00,72.2,54.0,30.00,NNW,337,3.0,6.0,53,0.00,,,0.00,Rainwise IP-100,2013-07-21 14:38:00,
2013-07-21 10:43:00,72.2,54.0,30.01,NNE,22,2.0,7.0,52,0.00,,,0.00,Rainwise IP-100,2013-07-21 14:43:00,
2013-07-21 10:48:00,71.7,53.0,30.00,ENE,67,0.0,4.0,52,0.00,,,0.00,Rainwise IP-100,2013-07-21 14:48:00,
2013-07-21 10:53:00,71.3,53.0,30.00,NNW,337,3.0,6.0,53,0.00,,,0.00,Rainwise IP-100,2013-07-21 14:53:00,
2013-07-21 10:58:00,71.3,54.0,29.98,NNE,22,2.0,6.0,54,0.00,,,0.00,Rainwise IP-100,2013-07-21 14:58:00,
2013-07-21 11:03:00,70.6,53.0,30.00,ENE,67,4.0,8.0,53,0.00,,,0.00,Rainwise IP-100,2013-07-21 15:03:00,
2013-07-21 11:08:00,70.7,53.0,30.03,ENE,67,2.0,6.0,54,0.00,,,0.00,Rainwise IP-100,2013-07-21 15:08:00,
2013-07-21 11:13:00,71.8,54.0,30.01,NE,45,6.0,6.0,54,0.00,,,0.00,Rainwise IP-100,2013-07-21 15:13:00,
2013-07-21 11:18:00,71.5,53.0,30.01,SE,135,2.0,8.0,53,0.00,,,0.00,Rainwise IP-100,2013-07-21 15:18:00,
2013-07-21 11:23:00,70.2,53.0,30.01,East,90,4.0,7.0,55,0.00,,,0.00,Rainwise IP-100,2013-07-21 15:23:00,
2013-07-21 11:28:00,69.9,54.0,30.01,SSE,157,7.0,7.0,58,0.00,,,0.00,Rainwise IP-100,2013-07-21 15:28:00,
2013-07-21 11:33:00,69.4,54.0,30.02,SE,135,0.0,1.0,59,0.00,,,0.00,Rainwise IP-100,2013-07-21 15:33:00,
2013-07-21 11:38:00,68.3,54.0,30.01,SE,135,6.0,6.0,61,0.00,,,0.00,Rainwise IP-100,2013-07-21 15:38:00,
2013-07-21 11:43:00,68.5,54.0,30.01,SSE,157,0.0,9.0,62,0.00,,,0.00,Rainwise IP-100,2013-07-21 15:43:00,
2013-07-21 11:48:00,69.0,54.0,30.01,SE,135,7.0,0.0,61,0.00,,,0.00,Rainwise IP-100,2013-07-21 15:48:00,
2013-07-21 11:53:00,69.4,55.0,30.01,East,90,3.0,8.0,61,0.00,,,0.00,Rainwise IP-100,2013-07-21 15:53:00,
2013-07-21 11:58:00,70.0,55.0,30.02,ESE,112,9.0,9.0,60,0.00,,,0.00,Rainwise IP-100,2013-07-21 15:58:00,
2013-07-21 12:03:00,70.0,55.0,30.02,SE,135,7.0,7.0,60,0.00,,,0.00,Rainwise IP-100,2013-07-21 16:03:00,
2013-07-21 12:08:00,69.4,54.0,30.01,ESE,112,0.0,3.0,60,0.00,,,0.00,Rainwise IP-100,2013-07-21 16:08:00,
2013-07-21 12:13:00,69.4,55.0,30.02,SSE,157,0.0,1.0,61,0.00,,,0.00,Rainwise IP-100,2013-07-21 16:13:00,
2013-07-21 12:18:00,69.9,56.0,30.01,SW,225,8.0,8.0,61,0.00,,,0.00,Rainwise IP-100,2013-07-21 16:18:00,
2013-07-21 12:23:00,70.1,55.0,30.02,SSW,202,4.0,4.0,60,0.00,,,0.00,Rainwise IP-100,2013-07-21 16:23:00,
2013-07-21 12:28:00,70.3,55.0,30.01,SSE,157,6.0,6.0,59,0.00,,,0.00,Rainwise IP-100,2013-07-21 16:28:00,
2013-07-21 12:33:00,70.5,55.0,30.03,SW,225,3.0,9.0,59,0.00,,,0.00,Rainwise IP-100,2013-07-21 16:33:00,
2013-07-21 12:38:00,70.5,55.0,30.02,SSE,157,3.0,0.0,59,0.00,,,0.00,Rainwise IP-100,2013-07-21 16:38:00,
2013-07-21 12:43:00,70.5,55.0,30.02,SE,135,6.0,0.0,59,0.00,,,0.00,Rainwise IP-100,2013-07-21 16:43:00,
2013-07-21 12:48:00,70.6,55.0,30.00,SSE,157,8.0,0.0,59,0.00,,,0.00,Rainwise IP-100,2013-07-21 16:48:00,
2013-07-21 12:53:00,70.9,56.0,30.01,SSW,202,3.0,0.0,59,0.00,,,0.00,Rainwise IP-100,2013-07-21 16:53:00,
2013-07-21 12:58:00,71.3,56.0,30.01,SSW,202,5.0,0.0,58,0.00,,,0.00,Rainwise IP-100,2013-07-21 16:58:00,
2013-07-21 13:03:00,71.2,55.0,30.00,SSW,202,5.0,5.0,57,0.00,,,0.00,Rainwise IP-100,2013-07-21 17:03:00,
2013-07-21 13:08:00,70.8,55.0,29.99,South,180,5.0,5.0,58,0.00,,,0.00,Rainwise IP-100,2013-07-21 17:08:00,
2013-07-21 13:13:00,71.1,55.0,29.99,SSW,202,2.0,9.0,58,0.00,,,0.00,Rainwise IP-100,2013-07-21 17:13:00,
2013-07-21 13:18:00,71.3,55.0,29.98,SE,135,7.0,7.0,57,0.00,,,0.00,Rainwise IP-100,2013-07-21 17:18:00,
2013-07-21 13:23:00,70.8,54.0,30.02,SW,225,4.0,4.0,57,0.00,,,0.00,Rainwise IP-100,2013-07-21 17:23:00,
2013-07-21 13:28:00,70.9,55.0,30.00,SSE,157,7.0,0.0,58,0.00,,,0.00,Rainwise IP-100,2013-07-21 17:28:00,
2013-07-21 13:33:00,71.5,56.0,30.01,SSW,202,1.0,7.0,58,0.00,,,0.00,Rainwise IP-100,2013-07-21 17:33:00,
2013-07-21 13:38:00,72.1,56.0,29.98,WSW,247,1.0,8.0,57,0.00,,,0.00,Rainwise IP-100,2013-07-21 17:38:00,
2013-07-21 13:43:00,72.6,56.0,30.02,SW,225,6.0,6.0,57,0.00,,,0.00,Rainwise IP-100,2013-07-21 17:43:00,
2013-07-21 13:47:00,73.0,56.0,30.00,NNW,337,5.0,7.0,56,0.00,,,0.00,Rainwise IP-100,2013-07-21 17:47:00,
2013-07-21 13:52:00,73.7,56.0,30.01,SSE,157,3.0,7.0,55,0.00,,,0.00,Rainwise IP-100,2013-07-21 17:52:00,
2013-07-21 13:57:00,74.5,57.0,30.01,WNW,292,5.0,5.0,54,0.00,,,0.00,Rainwise IP-100,2013-07-21 17:57:00,
2013-07-21 14:02:00,74.9,57.0,30.01,NW,315,4.0,7.0,53,0.00,,,0.00,Rainwise IP-100,2013-07-21 18:02:00,
2013-07-21 14:07:00,75.1,57.0,29.99,WSW,247,5.0,7.0,53,0.00,,,0.00,Rainwise IP-100,2013-07-21 18:07:00,
2013-07-21 14:12:00,75.6,56.0,29.97,NNW,337,0.0,6.0,52,0.00,,,0.00,Rainwise IP-100,2013-07-21 18:12:00,
2013-07-21 14:17:00,75.8,56.0,29.98,West,270,3.0,6.0,51,0.00,,,0.00,Rainwise IP-100,2013-07-21 18:17:00,
2013-07-21 14:22:00,75.4,56.0,30.01,SSE,157,0.0,7.0,51,0.00,,,0.00,Rainwise IP-100,2013-07-21 18:22:00,
2013-07-21 14:27:00,75.3,56.0,29.99,WNW,292,0.0,7.0,52,0.00,,,0.00,Rainwise IP-100,2013-07-21 18:27:00,
2013-07-21 14:32:00,75.0,57.0,30.01,SSW,202,0.0,1.0,53,0.00,,,0.00,Rainwise IP-100,2013-07-21 18:32:00,
2013-07-21 14:37:00,74.8,56.0,30.03,ENE,67,2.0,5.0,53,0.00,,,0.00,Rainwise IP-100,2013-07-21 18:37:00,
2013-07-21 14:42:00,75.5,56.0,29.98,SSW,202,2.0,5.0,52,0.00,,,0.00,Rainwise IP-100,2013-07-21 18:42:00,
2013-07-21 14:47:00,75.8,56.0,30.00,ESE,112,6.0,7.0,51,0.00,,,0.00,Rainwise IP-100,2013-07-21 18:47:00,
2013-07-21 14:52:00,75.0,56.0,29.98,WSW,247,2.0,0.0,52,0.00,,,0.00,Rainwise IP-100,2013-07-21 18:52:00,
2013-07-21 14:57:00,74.6,56.0,30.02,SSW,202,1.0,9.0,53,0.00,,,0.00,Rainwise IP-100,2013-07-21 18:57:00,
2013-07-21 15:02:00,75.0,56.0,30.00,SSW,202,4.0,9.0,52,0.00,,,0.00,Rainwise IP-100,2013-07-21 19:02:00,
2013-07-21 15:07:00,75.2,56.0,29.99,West,270,3.0,3.0,52,0.00,,,0.00,Rainwise IP-100,2013-07-21 19:07:00,
2013-07-21 15:12:00,75.2,56.0,29.96,WSW,247,6.0,0.0,51,0.00,,,0.00,Rainwise IP-100,2013-07-21 19:12:00,
2013-07-21 15:17:00,74.7,56.0,29.99,WSW,247,4.0,7.0,52,0.00,,,0.00,Rainwise IP-100,2013-07-21 19:17:00,
2013-07-21 15:22:00,74.4,56.0,30.00,SW,225,3.0,8.0,52,0.00,,,0.00,Rainwise IP-100,2013-07-21 19:22:00,
2013-07-21 15:27:00,74.9,56.0,30.00,NNW,337,5.0,5.0,52,0.00,,,0.00,Rainwise IP-100,2013-07-21 19:27:00,
2013-07-21 15:32:00,75.8,56.0,29.98,West,270,1.0,6.0,51,0.00,,,0.00,Rainwise IP-100,2013-07-21 19:32:00,
2013-07-21 15:37:00,76.7,57.0,30.00,West,270,3.0,7.0,50,0.00,,,0.00,Rainwise IP-100,2013-07-21 19:37:00,
2013-07-21 15:42:00,76.9,56.0,29.99,ENE,67,0.0,8.0,49,0.00,,,0.00,Rainwise IP-100,2013-07-21 19:42:00,
2013-07-21 15:47:00,76.8,56.0,30.01,SW,225,1.0,8.0,49,0.00,,,0.00,Rainwise IP-100,2013-07-21 19:47:00,
2013-07-21 15:52:00,77.0,56.0,29.99,West,270,3.0,7.0,49,0.00,,,0.00,Rainwise IP-100,2013-07-21 19:52:00,
2013-07-21 15:57:00,76.7,56.0,29.99,SW,225,7.0,7.0,49,0.00,,,0.00,Rainwise IP-100,2013-07-21 19:57:00,
2013-07-21 16:02:00,76.2,56.0,29.99,WSW,247,7.0,8.0,50,0.00,,,0.00,Rainwise IP-100,2013-07-21 20:02:00,
2013-07-21 16:07:00,76.0,56.0,30.01,WNW,292,4.0,4.0,50,0.00,,,0.00,Rainwise IP-100,2013-07-21 20:07:00,
2013-07-21 16:12:00,76.1,56.0,29.99,WSW,247,0.0,7.0,50,0.00,,,0.00,Rainwise IP-100,2013-07-21 20:12:00,
2013-07-21 16:17:00,76.3,56.0,29.99,South,180,2.0,7.0,49,0.00,,,0.00,Rainwise IP-100,2013-07-21 20:17:00,
2013-07-21 16:22:00,76.6,56.0,29.98,WSW,247,5.0,7.0,49,0.00,,,0.00,Rainwise IP-100,2013-07-21 20:22:00,
2013-07-21 16:27:00,76.4,56.0,29.98,WNW,292,2.0,8.0,49,0.00,,,0.00,Rainwise IP-100,2013-07-21 20:27:00,
2013-07-21 16:32:00,75.7,56.0,29.98,WSW,247,2.0,9.0,50,0.00,,,0.00,Rainwise IP-100,2013-07-21 20:32:00,
2013-07-21 16:37:00,74.5,55.0,30.00,SSW,202,3.0,7.0,51,0.00,,,0.00,Rainwise IP-100,2013-07-21 20:37:00,
2013-07-21 16:42:00,74.0,56.0,29.99,SSW,202,0.0,6.0,53,0.00,,,0.00,Rainwise IP-100,2013-07-21 20:42:00,
2013-07-21 16:47:00,73.9,56.0,30.00,SSW,202,2.0,7.0,53,0.00,,,0.00,Rainwise IP-100,2013-07-21 20:47:00,
2013-07-21 16:52:00,73.7,56.0,30.00,WSW,247,2.0,7.0,54,0.00,,,0.00,Rainwise IP-100,2013-07-21 20:52:00,
2013-07-21 16:57:00,73.4,56.0,30.00,SSW,202,2.0,6.0,55,0.00,,,0.00,Rainwise IP-100,2013-07-21 20:57:00,
2013-07-21 17:02:00,73.0,56.0,30.00,SW,225,2.0,4.0,55,0.00,,,0.00,Rainwise IP-100,2013-07-21 21:02:00,
2013-07-21 17:07:00,72.8,56.0,30.01,WSW,247,3.0,8.0,56,0.00,,,0.00,Rainwise IP-100,2013-07-21 21:07:00,
2013-07-21 17:12:00,72.6,56.0,30.01,SSW,202,2.0,9.0,56,0.00,,,0.00,Rainwise IP-100,2013-07-21 21:12:00,
2013-07-21 17:17:00,72.4,56.0,30.02,WSW,247,1.0,8.0,56,0.00,,,0.00,Rainwise IP-100,2013-07-21 21:17:00,
2013-07-21 17:22:00,72.1,55.0,30.01,West,270,3.0,8.0,56,0.00,,,0.00,Rainwise IP-100,2013-07-21 21:22:00,
2013-07-21 17:27:00,71.9,56.0,29.98,SSW,202,5.0,6.0,57,0.00,,,0.00,Rainwise IP-100,2013-07-21 21:27:00,
2013-07-21 17:32:00,71.7,55.0,30.01,SSW,202,2.0,0.0,57,0.00,,,0.00,Rainwise IP-100,2013-07-21 21:32:00,
2013-07-21 17:37:00,71.9,56.0,30.01,SSW,202,2.0,6.0,57,0.00,,,0.00,Rainwise IP-100,2013-07-21 21:37:00,
2013-07-21 17:42:00,72.3,56.0,30.01,WSW,247,4.0,7.0,56,0.00,,,0.00,Rainwise IP-100,2013-07-21 21:42:00,
2013-07-21 17:47:00,72.4,55.0,29.99,WNW,292,1.0,8.0,55,0.00,,,0.00,Rainwise IP-100,2013-07-21 21:47:00,
2013-07-21 17:52:00,72.4,55.0,30.02,WSW,247,2.0,2.0,55,0.00,,,0.00,Rainwise IP-100,2013-07-21 21:52:00,
2013-07-21 17:57:00,72.3,55.0,30.02,SSW,202,4.0,7.0,55,0.00,,,0.00,Rainwise IP-100,2013-07-21 21:57:00,
2013-07-21 18:02:00,72.1,54.0,29.99,SW,225,2.0,8.0,55,0.00,,,0.00,Rainwise IP-100,2013-07-21 22:02:00,
2013-07-21 18:07:00,71.7,54.0,30.01,South,180,1.0,7.0,55,0.00,,,0.00,Rainwise IP-100,2013-07-21 22:07:00,
2013-07-21 18:12:00,71.7,55.0,29.98,SW,225,7.0,9.0,56,0.00,,,0.00,Rainwise IP-100,2013-07-21 22:12:00,
2013-07-21 18:17:00,71.5,55.0,29.98,SSW,202,3.0,9.0,56,0.00,,,0.00,Rainwise IP-100,2013-07-21 22:17:00,
2013-07-21 18:22:00,71.1,54.0,29.99,SSW,202,0.0,7.0,57,0.00,,,0.00,Rainwise IP-100,2013-07-21 22:22:00,
2013-07-21 18:27:00,70.8,55.0,29.98,West,270,6.0,0.0,58,0.00,,,0.00,Rainwise IP-100,2013-07-21 22:27:00,
2013-07-21 18:32:00,70.6,55.0,29.99,WSW,247,2.0,8.0,59,0.00,,,0.00,Rainwise IP-100,2013-07-21 22:32:00,
2013-07-21 18:37:00,70.5,55.0,30.01,WSW,247,0.0,7.0,58,0.00,,,0.00,Rainwise IP-100,2013-07-21 22:37:00,
2013-07-21 18:42:00,70.9,55.0,30.00,West,270,6.0,6.0,58,0.00,,,0.00,Rainwise IP-100,2013-07-21 22:42:00,
2013-07-21 18:47:00,71.2,55.0,29.98,SSW,202,1.0,7.0,57,0.00,,,0.00,Rainwise IP-100,2013-07-21 22:47:00,
2013-07-21 18:52:00,71.2,55.0,29.98,WSW,247,2.0,6.0,57,0.00,,,0.00,Rainwise IP-100,2013-07-21 22:52:00,
2013-07-21 18:57:00,71.3,55.0,30.01,WSW,247,0.0,8.0,57,0.00,,,0.00,Rainwise IP-100,2013-07-21 22:57:00,
2013-07-21 19:02:00,71.2,54.0,30.00,ENE,67,1.0,5.0,56,0.00,,,0.00,Rainwise IP-100,2013-07-21 23:02:00,
2013-07-21 19:07:00,70.8,54.0,30.00,WSW,247,1.0,6.0,57,0.00,,,0.00,Rainwise IP-100,2013-07-21 23:07:00,
2013-07-21 19:12:00,70.6,54.0,30.03,WNW,292,6.0,6.0,57,0.00,,,0.00,Rainwise IP-100,2013-07-21 23:12:00,
2013-07-21 19:17:00,70.5,54.0,30.00,NW,315,6.0,6.0,57,0.00,,,0.00,Rainwise IP-100,2013-07-21 23:17:00,
2013-07-21 19:22:00,70.2,54.0,30.00,WSW,247,3.0,6.0,57,0.00,,,0.00,Rainwise IP-100,2013-07-21 23:22:00,
2013-07-21 19:27:00,69.7,54.0,29.99,West,270,0.0,6.0,58,0.00,,,0.00,Rainwise IP-100,2013-07-21 23:27:00,
2013-07-21 19:32:00,69.2,54.0,30.00,East,90,3.0,6.0,59,0.00,,,0.00,Rainwise IP-100,2013-07-21 23:32:00,
2013-07-21 19:37:00,68.7,54.0,30.01,NNW,337,3.0,0.0,61,0.00,,,0.00,Rainwise IP-100,2013-07-21 23:37:00,
2013-07-21 19:42:00,67.8,54.0,29.99,East,90,0.0,4.0,63,0.00,,,0.00,Rainwise IP-100,2013-07-21 23:42:00,
2013-07-21 19:47:00,67.5,54.0,30.02,WSW,247,0.0,4.0,63,0.00,,,0.00,Rainwise IP-100,2013-07-21 23:47:00,
2013-07-21 19:52:00,67.7,54.0,30.05,SE,135,0.0,3.0,62,0.00,,,0.00,Rainwise IP-100,2013-07-21 23:52:00,
2013-07-21 19:57:00,67.8,53.0,30.02,NE,45,3.0,3.0,61,0.00,,,0.00,Rainwise IP-100,2013-07-21 23:57:00,
2013-07-21 20:02:00,67.2,54.0,30.00,ENE,67,2.0,3.0,63,0.00,,,0.00,Rainwise IP-100,2013-07-22 00:02:00,
2013-07-21 20:07:00,66.5,55.0,30.01,ENE,67,0.0,3.0,66,0.00,,,0.00,Rainwise IP-100,2013-07-22 00:07:00,
2013-07-21 20:12:00,66.1,55.0,30.02,NNE,22,2.0,3.0,68,0.00,,,0.00,Rainwise IP-100,2013-07-22 00:12:00,
2013-07-21 20:17:00,65.7,54.0,30.01,ENE,67,3.0,3.0,69,0.00,,,0.00,Rainwise IP-100,2013-07-22 00:17:00,
2013-07-21 20:22:00,65.4,55.0,30.03,NE,45,3.0,4.0,70,0.00,,,0.00,Rainwise IP-100,2013-07-22 00:22:00,
2013-07-21 20:27:00,65.3,54.0,30.02,NNE,22,3.0,3.0,69,0.00,,,0.00,Rainwise IP-100,2013-07-22 00:27:00,
2013-07-21 20:32:00,65.1,54.0,30.02,NNE,22,0.0,2.0,70,0.00,,,0.00,Rainwise IP-100,2013-07-22 00:32:00,
2013-07-21 20:37:00,64.9,54.0,30.03,NNE,22,1.0,1.0,70,0.00,,,0.00,Rainwise IP-100,2013-07-22 00:37:00,
2013-07-21 20:42:00,64.7,54.0,30.02,WNW,292,0.0,2.0,70,0.00,,,0.00,Rainwise IP-100,2013-07-22 00:42:00,
2013-07-21 20:47:00,64.7,54.0,30.04,NNW,337,4.0,4.0,70,0.00,,,0.00,Rainwise IP-100,2013-07-22 00:47:00,
2013-07-21 20:52:00,64.8,54.0,30.05,NNE,22,2.0,4.0,69,0.00,,,0.00,Rainwise IP-100,2013-07-22 00:52:00,
2013-07-21 20:57:00,64.6,54.0,30.02,NE,45,1.0,4.0,69,0.00,,,0.00,Rainwise IP-100,2013-07-22 00:57:00,
2013-07-21 21:02:00,64.5,54.0,30.03,ESE,112,0.0,2.0,69,0.00,,,0.00,Rainwise IP-100,2013-07-22 01:02:00,
2013-07-21 21:07:00,64.5,53.0,30.04,ESE,112,1.0,2.0,68,0.00,,,0.00,Rainwise IP-100,2013-07-22 01:07:00,
2013-07-21 21:12:00,64.6,53.0,30.03,ENE,67,3.0,3.0,68,0.00,,,0.00,Rainwise IP-100,2013-07-22 01:12:00,
2013-07-21 21:17:00,64.6,53.0,30.03,NE,45,4.0,4.0,68,0.00,,,0.00,Rainwise IP-100,2013-07-22 01:17:00,
2013-07-21 21:22:00,64.4,53.0,30.05,NE,45,1.0,7.0,68,0.00,,,0.00,Rainwise IP-100,2013-07-22 01:22:00,
2013-07-21 21:27:00,64.3,53.0,30.02,NNW,337,0.0,2.0,67,0.00,,,0.00,Rainwise IP-100,2013-07-22 01:27:00,
2013-07-21 21:32:00,64.1,53.0,30.05,SE,135,3.0,3.0,67,0.00,,,0.00,Rainwise IP-100,2013-07-22 01:32:00,
2013-07-21 21:37:00,63.7,53.0,30.07,ENE,67,2.0,6.0,69,0.00,,,0.00,Rainwise IP-100,2013-07-22 01:37:00,
2013-07-21 21:42:00,63.1,53.0,30.05,ENE,67,4.0,6.0,71,0.00,,,0.00,Rainwise IP-100,2013-07-22 01:42:00,
2013-07-21 21:47:00,62.7,53.0,30.05,ENE,67,0.0,4.0,72,0.00,,,0.00,Rainwise IP-100,2013-07-22 01:47:00,
2013-07-21 21:52:00,62.6,53.0,30.07,ENE,67,0.0,2.0,72,0.00,,,0.00,Rainwise IP-100,2013-07-22 01:52:00,
2013-07-21 21:57:00,62.6,54.0,30.06,ENE,67,0.0,1.0,73,0.00,,,0.00,Rainwise IP-100,2013-07-22 01:57:00,
2013-07-21 22:02:00,62.6,54.0,30.05,ENE,67,0.0,0.0,73,0.00,,,0.00,Rainwise IP-100,2013-07-22 02:02:00,
2013-07-21 22:07:00,62.6,54.0,30.05,ENE,67,0.0,0.0,73,0.00,,,0.00,Rainwise IP-100,2013-07-22 02:07:00,
2013-07-21 22:12:00,62.4,54.0,30.06,ENE,67,0.0,0.0,73,0.00,,,0.00,Rainwise IP-100,2013-07-22 02:12:00,
2013-07-21 22:17:00,62.3,53.0,30.05,ENE,67,2.0,2.0,73,0.00,,,0.00,Rainwise IP-100,2013-07-22 02:17:00,
2013-07-21 22:22:00,62.6,54.0,30.02,ENE,67,2.0,4.0,73,0.00,,,0.00,Rainwise IP-100,2013-07-22 02:22:00,
2013-07-21 22:27:00,62.7,54.0,30.06,NE,45,2.0,3.0,73,0.00,,,0.00,Rainwise IP-100,2013-07-22 02:27:00,
2013-07-21 22:32:00,61.9,54.0,30.05,NNE,22,2.0,3.0,75,0.00,,,0.00,Rainwise IP-100,2013-07-22 02:32:00,
2013-07-21 22:37:00,61.2,54.0,30.07,ENE,67,2.0,3.0,78,0.00,,,0.00,Rainwise IP-100,2013-07-22 02:37:00,
2013-07-21 22:42:00,61.0,54.0,30.07,ENE,67,0.0,2.0,79,0.00,,,0.00,Rainwise IP-100,2013-07-22 02:42:00,
2013-07-21 22:47:00,61.1,54.0,30.06,SSE,157,0.0,3.0,79,0.00,,,0.00,Rainwise IP-100,2013-07-22 02:47:00,
2013-07-21 22:52:00,61.2,54.0,30.06,SSE,157,0.0,2.0,78,0.00,,,0.00,Rainwise IP-100,2013-07-22 02:52:00,
2013-07-21 22:57:00,61.0,54.0,30.08,SSE,157,0.0,0.0,78,0.00,,,0.00,Rainwise IP-100,2013-07-22 02:57:00,
2013-07-21 23:02:00,60.8,53.0,30.06,SSE,157,0.0,0.0,78,0.00,,,0.00,Rainwise IP-100,2013-07-22 03:02:00,
2013-07-21 23:07:00,60.8,53.0,30.08,SSE,157,0.0,1.0,78,0.00,,,0.00,Rainwise IP-100,2013-07-22 03:07:00,
2013-07-21 23:12:00,60.9,54.0,30.09,South,180,0.0,2.0,78,0.00,,,0.00,Rainwise IP-100,2013-07-22 03:12:00,
2013-07-21 23:17:00,61.1,54.0,30.07,ENE,67,2.0,2.0,79,0.00,,,0.00,Rainwise IP-100,2013-07-22 03:17:00,
2013-07-21 23:22:00,61.2,54.0,30.06,ENE,67,3.0,4.0,79,0.00,,,0.00,Rainwise IP-100,2013-07-22 03:22:00,
2013-07-21 23:27:00,61.3,54.0,30.09,ESE,112,0.0,4.0,78,0.00,,,0.00,Rainwise IP-100,2013-07-22 03:27:00,
2013-07-21 23:32:00,61.3,54.0,30.06,ESE,112,0.0,0.0,77,0.00,,,0.00,Rainwise IP-100,2013-07-22 03:32:00,
2013-07-21 23:37:00,61.4,54.0,30.08,ESE,112,0.0,0.0,76,0.00,,,0.00,Rainwise IP-100,2013-07-22 03:37:00,
2013-07-21 23:42:00,61.5,53.0,30.08,NE,45,0.0,2.0,75,0.00,,,0.00,Rainwise IP-100,2013-07-22 03:42:00,
2013-07-21 23:47:00,61.6,53.0,30.06,NE,45,1.0,0.0,75,0.00,,,0.00,Rainwise IP-100,2013-07-22 03:47:00,
2013-07-21 23:52:00,61.8,53.0,30.07,NE,45,1.0,1.0,75,0.00,,,0.00,Rainwise IP-100,2013-07-22 03:52:00,
2013-07-21 23:57:00,61.8,54.0,30.07,NE,45,0.0,1.0,76,0.00,,,0.00,Rainwise IP-100,2013-07-22 03:57:00,